CW3766 Weather Reports


time (UTC)temp
F
wind
direction
speed
knots
gust
knots
rain 1hr
in
rain 24hr
in
rain mn
in
humidity
%
barometer
mb
20260504150604 67 208 3.5 10.4 0.00 0.00 0.00 42 1012.5
20260504150104 67 214 3.5 12.2 0.00 0.00 0.00 42 1012.6
20260504141104 63 208 4.3 8.7 0.00 0.00 0.00 46 1012.8
20260504140104 63 164 4.3 7.8 0.00 0.00 0.00 47 1012.8
20260504130602 57 178 2.6 8.7 0.00 0.00 0.00 54 1013.4
20260504100602 48 217 0.0 0.0 0.00 0.00 0.00 74 1014.1
20260504081602 50 182 0.9 2.6 0.00 0.00 0.00 64 1014.3
20260504081102 49 162 0.9 2.6 0.00 0.00 0.00 64 1014.2
20260504050602 43 294 0.0 0.0 0.00 0.00 0.00 87 1014.8
20260504045103 42 294 0.0 0.0 0.00 0.00 0.00 84 1014.8
20260504044602 42 294 0.0 0.0 0.00 0.00 0.00 84 1014.8
20260504044102 42 294 0.0 0.0 0.00 0.00 0.00 84 1014.8
20260504043602 42 294 0.0 0.0 0.00 0.00 0.00 83 1014.8
20260504043102 42 294 0.0 0.0 0.00 0.00 0.00 84 1014.8
20260504042602 42 294 0.0 0.0 0.00 0.00 0.00 83 1014.7
20260504042102 42 294 0.0 0.0 0.00 0.00 0.00 83 1014.7
20260504041603 42 294 0.0 0.0 0.00 0.00 0.00 83 1014.6
20260504041102 42 294 0.0 0.0 0.00 0.00 0.00 84 1014.5
20260504040602 42 294 0.0 0.0 0.00 0.00 0.00 85 1014.6
20260504035602 43 294 0.0 0.0 0.00 0.00 0.00 86 1014.6
20260504034601 43 294 0.0 0.0 0.00 0.00 0.00 85 1014.7
20260504034103 43 294 0.0 0.0 0.00 0.00 0.00 80 1014.7
20260504033103 44 294 0.0 0.0 0.00 0.00 0.00 80 1014.7
20260504032602 44 294 0.0 0.0 0.00 0.00 0.00 79 1014.7
20260504032102 44 294 0.0 0.0 0.00 0.00 0.00 78 1014.5
20260504031603 44 294 0.0 0.0 0.00 0.00 0.00 80 1014.5
20260504031102 44 294 0.0 0.0 0.00 0.00 0.00 80 1014.4
20260504030602 44 294 0.0 0.0 0.00 0.00 0.00 85 1014.4
20260504025602 44 294 0.0 0.0 0.00 0.00 0.00 78 1014.4
20260504025102 44 294 0.0 0.0 0.00 0.00 0.00 78 1014.3
20260504024602 45 294 0.0 0.0 0.00 0.00 0.00 77 1014.3
20260504024102 45 294 0.0 0.0 0.00 0.00 0.00 76 1014.3
20260504023603 46 294 0.0 0.0 0.00 0.00 0.00 79 1014.2
20260504023102 46 294 0.0 0.0 0.00 0.00 0.00 74 1014.1
20260504022602 46 294 0.0 0.0 0.00 0.00 0.00 76 1014.2
20260504022102 46 294 0.0 0.0 0.00 0.00 0.00 72 1014.1
20260504021603 46 294 0.0 0.0 0.00 0.00 0.00 72 1014.0
20260504021102 47 294 0.0 0.0 0.00 0.00 0.00 70 1013.9
20260504020602 47 294 0.0 0.0 0.00 0.00 0.00 70 1013.9
20260504015602 48 294 0.0 0.0 0.00 0.00 0.00 69 1013.8
20260504015102 48 294 0.0 0.0 0.00 0.00 0.00 65 1013.7
20260504013602 49 294 0.0 0.0 0.00 0.00 0.00 64 1013.6
20260504013102 50 294 0.0 0.0 0.00 0.00 0.00 60 1013.4
20260504012602 50 294 0.0 0.0 0.00 0.00 0.00 63 1013.4
20260504012103 51 294 0.0 0.0 0.00 0.00 0.00 56 1013.3
20260504011602 51 294 0.0 0.0 0.00 0.00 0.00 55 1013.3
20260504010602 51 294 0.0 0.0 0.00 0.00 0.00 55 1013.3
20260504005602 52 294 0.0 0.0 0.00 0.00 0.00 52 1013.3
20260504005102 53 294 0.0 0.0 0.00 0.00 0.00 56 1013.2
20260504004602 53 294 0.0 0.0 0.00 0.00 0.00 64 1013.1
20260504004103 54 294 0.0 0.0 0.00 0.00 0.00 47 1013.1
20260504003102 55 294 0.0 0.0 0.00 0.00 0.00 47 1013.0
20260504002603 56 294 0.0 0.0 0.00 0.00 0.00 44 1013.0
20260504002102 56 294 0.0 0.0 0.00 0.00 0.00 41 1012.9
20260504001103 58 294 0.0 0.0 0.00 0.00 0.00 40 1012.9
20260504000603 58 294 0.0 0.0 0.00 0.00 0.00 40 1012.8
20260503234602 60 294 0.0 0.0 0.00 0.00 0.00 39 1012.7
20260503234102 60 294 0.9 1.7 0.00 0.00 0.00 37 1012.7
20260503233602 61 326 0.0 1.7 0.00 0.00 0.00 37 1012.6
20260503233102 61 328 0.9 4.3 0.00 0.00 0.00 35 1012.6
20260503232602 61 320 0.9 2.6 0.00 0.00 0.00 34 1012.6
20260503232102 62 304 1.7 4.3 0.00 0.00 0.00 34 1012.5
20260503231603 62 300 1.7 6.1 0.00 0.00 0.00 32 1012.4
20260503230602 64 329 1.7 5.2 0.00 0.00 0.00 33 1012.3
20260503225102 64 330 0.9 6.1 0.00 0.00 0.00 31 1012.3
20260503224602 65 311 1.7 6.1 0.00 0.00 0.00 31 1012.3
20260503224103 64 328 1.7 4.3 0.00 0.00 0.00 31 1012.3
20260503223602 64 19 0.9 4.3 0.00 0.00 0.00 30 1012.3
20260503223102 63 290 3.5 7.0 0.00 0.00 0.00 30 1012.4
20260503222603 64 277 3.5 7.8 0.00 0.00 0.00 30 1012.4
20260503222102 64 338 2.6 6.1 0.00 0.00 0.00 30 1012.4
20260503221102 64 291 2.6 7.0 0.00 0.00 0.00 31 1012.4
20260503220602 64 255 2.6 7.0 0.00 0.00 0.00 31 1012.5
20260503215602 64 337 3.5 8.7 0.00 0.00 0.00 31 1012.4
20260503214602 64 266 1.7 4.3 0.00 0.00 0.00 30 1012.5
20260503214102 64 223 2.6 6.1 0.00 0.00 0.00 31 1012.5
20260503213602 64 294 3.5 7.0 0.00 0.00 0.00 30 1012.6
20260503212603 63 285 1.7 8.7 0.00 0.00 0.00 32 1012.7
20260503212102 63 319 3.5 7.8 0.00 0.00 0.00 31 1012.6
20260503211603 64 337 2.6 7.8 0.00 0.00 0.00 31 1012.6
20260503211103 64 256 2.6 7.8 0.00 0.00 0.00 31 1012.6
20260503205602 63 254 2.6 7.8 0.00 0.00 0.00 32 1012.6
20260503204603 64 321 4.3 7.8 0.00 0.00 0.00 31 1012.9
20260503204102 63 272 2.6 8.7 0.00 0.00 0.00 32 1012.8
20260503203602 63 308 2.6 7.0 0.00 0.00 0.00 32 1012.9
20260503203102 63 267 1.7 6.1 0.00 0.00 0.00 34 1012.8
20260503202603 62 7 2.6 7.8 0.00 0.00 0.00 32 1012.9
20260503202103 62 286 2.6 7.8 0.00 0.00 0.00 32 1013.0
20260503201603 61 253 2.6 7.8 0.00 0.00 0.00 32 1013.0
20260503200603 61 310 5.2 12.2 0.00 0.00 0.00 33 1013.1
20260503195603 61 263 2.6 13.9 0.00 0.00 0.00 33 1013.4
20260503195102 61 296 1.7 10.4 0.00 0.00 0.00 34 1013.4
20260503194602 60 280 4.3 8.7 0.00 0.00 0.00 34 1013.6
20260503194103 60 289 2.6 10.4 0.00 0.00 0.00 35 1013.6
20260503193603 60 314 2.6 10.4 0.00 0.00 0.00 36 1013.7
20260503193103 60 285 3.5 10.4 0.00 0.00 0.00 36 1013.8
20260503192603 60 230 2.6 10.4 0.00 0.00 0.00 35 1014.0
20260503192103 59 267 2.6 12.2 0.00 0.00 0.00 37 1014.0
20260503191602 59 279 3.5 12.2 0.00 0.00 0.00 36 1014.1
20260503191102 59 316 2.6 8.7 0.00 0.00 0.00 36 1014.2
20260503190603 60 280 2.6 8.7 0.00 0.00 0.00 36 1014.1
20260503185602 61 30 2.6 11.3 0.00 0.00 0.00 35 1014.2
20260503184603 60 275 1.7 5.2 0.00 0.00 0.00 36 1014.3
20260503182103 59 285 4.3 11.3 0.00 0.00 0.00 37 1014.6
20260503181103 58 303 1.7 8.7 0.00 0.00 0.00 38 1014.6
20260503175603 57 22 3.5 10.4 0.00 0.00 0.00 39 1014.8
20260503175103 57 286 3.5 7.8 0.00 0.00 0.00 40 1014.9
20260503174602 58 250 3.5 7.0 0.00 0.00 0.00 39 1015.0
20260503174102 58 332 2.6 6.1 0.00 0.00 0.00 38 1015.0
20260503173603 57 352 2.6 7.0 0.00 0.00 0.00 40 1015.1
20260503173103 56 340 4.3 11.3 0.00 0.00 0.00 40 1015.1
20260503172602 56 305 3.5 8.7 0.00 0.00 0.00 39 1015.1
20260503171603 56 295 2.6 6.1 0.00 0.00 0.00 40 1015.2
20260503171103 56 0 2.6 7.8 0.00 0.00 0.00 41 1015.2
20260503170603 56 286 3.5 7.0 0.00 0.00 0.00 39 1015.3